Location: *
(46.3500°N, 10.9000°E)
Time: 00:08:54
(UTC+00:00)

Vanguard 2 - Pass Details

Date: 25 April 2021
Orbit: 552 x 2938 km, 32.9° (Epoch: 12 May)

Event Time Altitude Azimuth Distance (km) Brightness Sun altitude
Rises 13:44:50 0° 265° (W) 6,594 12.9 44.4°
Reaches altitude 10° 13:49:57 10° 259° (W) 5,350 12.8 43.6°
Maximum altitude 14:03:01 38° 200° (SSW) 2,764 11.5 41.7°
Drops below altitude 10° 14:11:43 10° 136° (SE) 3,570 10.9 40.4°
Sets 14:14:25 0° 128° (SE) 4,256 11.1 40.0°
